This demonstration page uses our WeatherBlox Daily Observations layout. Learn more.

Left ArrowRight Arrow

Hourly Observations for January 2, 2020

Temp ( °F °C ) Dew Point ( °F °C ) Humidity (%) Winds ( mph kmh ) Pressure ( in mb ) Visibility ( mi km ) Precip ( " mm )
12:53 am 00:53 Clear 42 5.6 34 1.1 73 73 Calm 30.00 1016 10 16 0.00 0.00
1:53 am 01:53 Clear 42 5.6 34 1.1 73 73 Calm 30.01 1016 10 16 0.00 0.00
2:53 am 02:53 Clear 42 5.6 35 1.7 76 76 Calm 30.00 1016 10 16 0.00 0.00
3:53 am 03:53 Cloudy 44 6.7 35 1.7 71 71 Calm 30.01 1016 10 16 0.00 0.00
4:53 am 04:53 Cloudy with Light Rain 44 6.7 36 2.2 73 73 Calm 30.01 1016 10 16 0.00 0.00
5:53 am 05:53 Cloudy with Light Rain 44 6.7 39 3.9 83 83 Calm 30.01 1016 10 16 0.01 0.25
6:53 am 06:53 Mostly Cloudy 44 6.7 41 5 89 89 Calm 30.01 1016 10 16 0.01 0.25
7:53 am 07:53 Cloudy with Light Rain 44 6.7 42 5.6 93 93 Calm 30.02 1017 10 16 0.01 0.25
8:19 am 08:19 Cloudy with Light Rain 45 7.2 42 5.6 90 90 Calm 30.04 1017 10 16 0.00 0.00
8:53 am 08:53 Cloudy 45 7.2 41 5 86 86 Calm 30.02 1017 10 16 0.00 0.00
9:53 am 09:53 Cloudy with Light Rain 47 8.3 40 4.4 77 77 SSE 5 7 30.05 1018 10 16 0.01 0.25
10:50 am 10:50 Cloudy with Light Rain 48 9 43 6 82 82 Calm 30.07 1018 10 16 0.01 0.25
10:53 am 10:53 Cloudy with Light Rain 48 8.9 43 6.1 83 83 ENE 3 6 30.06 1018 10 16 0.01 0.25
11:42 am 11:42 Cloudy with Light Rain 47 8.3 43 6.1 86 86 Calm 30.05 1017 8 13 0.05 1.27
11:53 am 11:53 Cloudy with Light Rain 47 8.3 44 6.7 90 90 Calm 30.04 1017 5 8 0.07 1.78
12:49 pm 12:49 Cloudy with Rain 46 8 45 7 93 93 NE 7 11 30.00 1016 3 5 0.15 3.81
12:53 pm 12:53 Cloudy with Rain 47 8.3 45 7.2 93 93 ENE 5 7 30.00 1016 3 5 0.16 4.06
1:05 pm 13:05 Cloudy with Heavy Rain 47 8.3 45 7.2 93 93 NE 5 7 30.02 1016 3 4 0.05 1.27
1:28 pm 13:28 Cloudy with Rain 47 8.3 45 7.2 93 93 NNE 6 9 30.01 1016 3 5 0.15 3.81
1:35 pm 13:35 Cloudy with Heavy Rain 47 8.3 45 7.2 93 93 NE 6 9 30.01 1016 2 3 0.19 4.83
1:53 pm 13:53 Cloudy with Heavy Rain 47 8.3 45 7.2 93 93 NE 8 13 29.96 1015 3 4 0.29 7.37
2:25 pm 14:25 Cloudy with Rain 47 8.3 45 7.2 93 93 E 7 11 29.94 1014 3 5 0.15 3.81
2:53 pm 14:53 Cloudy with Heavy Rain 47 8.3 45 7.2 93 93 ENE 8 13 29.93 1014 3 4 0.25 6.35
3:19 pm 15:19 Cloudy with Rain 47 8.3 45 7.2 93 93 E 7 11 29.94 1014 4 6 0.08 2.03
3:25 pm 15:25 Cloudy with Heavy Rain 47 8.3 45 7.2 93 93 E 7 11 29.94 1014 3 4 0.12 3.05
3:37 pm 15:37 Cloudy with Light Rain 47 8.3 45 7.2 93 93 NE 7 11 29.94 1014 4 6 0.14 3.56
3:53 pm 15:53 Cloudy with Heavy Rain 47 8.3 45 7.2 93 93 NNE 10 17 29.94 1014 3 4 0.18 4.57
3:55 pm 15:55 Cloudy with Heavy Rain 47 8.3 45 7.2 93 93 NNE 10 17 29.96 1014 2 3 0.03 0.76
4:19 pm 16:19 Cloudy with Heavy Rain 47 8.3 45 7.2 93 93 E 15 24 29.92 1013 2 3 0.20 5.08
4:29 pm 16:29 Cloudy with Light Rain 47 8.3 45 7.2 93 93 ENE 12 19 29.92 1013 7 11 0.20 5.08
4:53 pm 16:53 Cloudy with Light Rain 47 8.3 45 7.2 93 93 E 3 6 29.91 1013 8 13 0.23 5.84
5:53 pm 17:53 Cloudy with Light Rain 48 8.9 45 7.2 89 89 ENE 5 7 29.91 1013 10 16 0.00 0.00
6:53 pm 18:53 Cloudy with Light Rain 48 8.9 45 7.2 89 89 E 6 9 29.92 1013 4 6 0.01 0.25
7:17 pm 19:17 Cloudy with Light Rain 47 8.3 45 7.2 93 93 E 5 7 29.92 1013 5 8 0.02 0.51
7:26 pm 19:26 Cloudy with Light Rain 47 8.3 45 7.2 93 93 ENE 6 9 29.91 1013 9 14 0.02 0.51
7:42 pm 19:42 Cloudy with Light Rain 47 8.3 45 7.2 93 93 E 5 7 29.92 1013 7 11 0.04 1.02
7:50 pm 19:50 Cloudy with Light Rain 48 9 45 7 87 87 VRB 6 9 29.91 1013 7 11 0.04 1.02
7:53 pm 19:53 Cloudy with Light Rain 48 8.9 45 7.2 89 89 E 7 11 29.90 1013 7 11 0.04 1.02
8:53 pm 20:53 Cloudy 48 8.9 46 7.8 93 93 E 5 7 29.90 1013 10 16 0.01 0.25
9:53 pm 21:53 Cloudy with Light Rain 49 9.4 46 7.8 90 90 ESE 7 11 29.91 1013 4 6 0.03 0.76
10:22 pm 22:22 Cloudy 49 9.4 46 7.8 90 90 E 3 6 29.92 1013 10 16 0.01 0.25
10:53 pm 22:53 Cloudy 49 9.4 47 8.3 93 93 ENE 5 7 29.89 1012 10 16 0.01 0.25
11:03 pm 23:03 Cloudy 49 9.4 47 8.3 93 93 ENE 5 7 29.90 1013 10 16 0.00 0.00
11:23 pm 23:23 Cloudy with Light Rain 49 9.4 47 8.3 93 93 ENE 5 7 29.90 1013 10 16 0.00 0.00
11:53 pm 23:53 Cloudy with Light Rain 50 10 48 8.9 93 93 NE 5 7 29.89 1012 10 16 0.01 0.25

Powered by AerisWeather